Home   Weather   Reutlingen   Past weeks

Flag for Germany Past Weather in Reutlingen, Baden-Württemberg, Germany — Yesterday and Last 2 Weeks

Now
75 °F

Scattered clouds.


Feels Like: 78 °F
Forecast: 65 / 83 °F
Wind: 6 mph from North

Location: Stuttgart-Echterdingen

Current Time: Jul 29, 2017 at 2:05:53 pm

Latest Report: Jul 29, 2017 at 1:20 pm


Visibility: N/A

Pressure: 30.04 "Hg

Humidity: 50%

Dew Point: 55 °F

Location of ReutlingenLocation

Past Weather in Reutlingen — Graph

°F

Reutlingen Temperature Yesterday

Maximum temperature yesterday: 73 °F (at 3:50 pm)
Minimum temperature yesterday: 59 °F (at 3:50 am)
Average temperature yesterday: 66 °F

High & Low Weather Summary for the Past Weeks

 TemperatureHumidityPressure
High91 °F (Jul 19, 3:20 pm)100% (Jul 15, 2:50 am)30.30 "Hg (Jul 15, 2:50 am)
Low50 °F (Jul 16, 3:50 am)29% (Jul 19, 4:20 pm)29.74 "Hg (Jul 26, 12:50 am)
Average66 °F73%29.99 "Hg
* Reported Jul 14 1:20 pm — Jul 29 1:20 pm, Reutlingen. Weather by CustomWeather, © 2017

Note: Actual official high and low records may vary slightly from our data, if they occured in-between our weather recording intervals... More about our weather records

Advertising

Reutlingen Weather History for the Previous 24 Hours

Scroll right to see more
 ConditionsComfort  
Time TempWeatherWind HumidityBarometerVisibility
1:20 pm
Sat, Jul 29
75 °FScattered clouds.6 mph50%30.04 "HgN/A
12:20 pm73 °FPartly sunny.6 mph53%30.07 "HgN/A
11:50 am72 °FBroken clouds.3 mph53%30.07 "HgN/A
11:20 am73 °FScattered clouds.7 mph53%30.07 "HgN/A
10:50 am72 °FScattered clouds.8 mph53%30.07 "HgN/A
10:20 am72 °FScattered clouds.8 mph57%30.07 "HgN/A
9:50 am70 °FScattered clouds.8 mph57%30.07 "HgN/A
9:20 am68 °FPassing clouds.7 mph64%30.07 "HgN/A
8:50 am66 °FPassing clouds.7 mph68%30.07 "HgN/A
8:20 am64 °FSunny.2 mph73%30.07 "Hg10 mi
7:50 am63 °FSunny.1 mph77%30.04 "Hg10 mi
7:20 am61 °FSunny.2 mph88%30.04 "Hg10 mi
6:50 am59 °FSunny.2 mph82%30.04 "Hg10 mi
6:20 am59 °FSunny.2 mph82%30.04 "Hg10 mi
5:50 am57 °FClear.1 mph88%30.04 "Hg10 mi
5:20 am55 °FClear.1 mph94%30.04 "Hg10 mi
4:50 am57 °FClear.1 mph88%30.04 "Hg10 mi
4:20 am59 °FClear.1 mph82%30.01 "Hg10 mi
3:50 am57 °FClear.1 mph94%30.04 "Hg10 mi
3:20 am57 °FClear.2 mph94%30.04 "Hg10 mi
2:50 am59 °FClear.1 mph88%30.04 "Hg10 mi
2:20 am61 °FClear.1 mph83%30.04 "Hg10 mi
1:50 am61 °FClear.2 mph83%30.04 "Hg10 mi
1:20 am63 °FClear.1 mph83%30.04 "Hg10 mi
12:50 am63 °FClear.1 mph77%30.04 "Hg10 mi
12:20 am64 °FClear.1 mph78%30.04 "Hg10 mi
11:50 pm
Fri, Jul 28
64 °FClear.1 mph78%30.04 "Hg10 mi
11:20 pm64 °FClear.2 mph78%30.04 "Hg10 mi
10:50 pm64 °FClear.1 mph73%30.04 "Hg10 mi
10:20 pm68 °FClear.2 mph60%30.04 "Hg10 mi
9:50 pm68 °FClear.3 mph60%30.04 "Hg10 mi
8:50 pm68 °FPassing clouds.3 mph56%30.01 "HgN/A
8:20 pm70 °FPassing clouds.5 mph57%30.01 "HgN/A
7:50 pm72 °FPassing clouds.3 mph50%30.01 "HgN/A
7:20 pm72 °FPassing clouds.6 mph47%30.01 "HgN/A
6:50 pm73 °FPassing clouds.8 mph44%30.01 "HgN/A
6:20 pm73 °FPassing clouds.9 mph44%30.01 "HgN/A
5:50 pm73 °FPassing clouds.9 mph47%30.01 "HgN/A
5:20 pm73 °FPassing clouds.9 mph44%30.01 "HgN/A
4:50 pm73 °FPassing clouds.9 mph44%30.01 "HgN/A
4:20 pm72 °FPassing clouds.6 mph50%30.01 "HgN/A
3:50 pm73 °FPassing clouds.9 mph44%30.01 "HgN/A
3:20 pm72 °FPassing clouds.10 mph47%30.01 "HgN/A
2:50 pm72 °FPassing clouds.9 mph47%30.01 "HgN/A
2:20 pm72 °FSunny.7 mph44%30.01 "Hg10 mi
Weather by CustomWeather, © 2017

See weather overviewHow to use our weather pages